TITAN 3C TRANSTAGE DEB, 36980

Orbit data source: Space-Track

TITAN 3C TRANSTAGE DEB, 36980 is space debris in HEO originally from a launch on Tue, 21 Dec 1965 UTC launched from the Air Force Eastern Test Range (AFETR). Debris objects in space refer to the collection of defunct objects orbiting the Earth. Examples of debris include non-operational satellites, rocket bodies, and fragments generated from explosions, collisions, or faulty payload assembly.

Loading next visibility...
Identifier
36980, 1965-108DL
Orbit
HEO
Country
Flag of USUS
Related business
Manufacturer
Unknown
Mission
Spacecraft
Bus & Motor
Unknown
Mass
Unknown
Launch date (UTC)
1965-12-21 (60 years ago)
Launch vehicle
Unknown
Launch site
Air Force Eastern Test Range (AFETR)
Object type
Payload
Rocket body
Debris
Shape & HBR
Unknown shape, 0.1 m
Radar Cross Section
Small (<0.1 m²)

Expand to show TLE details & history
Last TLE update: 2 weeks ago

TLE from 2 weeks ago
0 TITAN 3C TRANSTAGE DEB
1 36980U 65108DL  25277.45856152  .00000062  00000-0  56018-3 0  9996
2 36980  26.9639 302.7143 6787542 182.8856 346.5191  2.70792095 13442
Epoch: 2025-10-04T11:00Z
TLE epoch observation values (Epoch: 2025-10-04T11:00:19.715Z)
Latitude
25.59367°
Longitude
-125.66248°
Altitude
3,594.792 km
Speed
7.85 km/s
True Right ascension
03h 31m 14s
True Declination
25° 29' 53"
Sunlit
Object was in daylight at epoch
Visualization orbit readout
Latitude
Unknown
Longitude
Unknown
Altitude
Unknown
Speed
Unknown
Apparent Right ascension
Unknown
Apparent Declination
Unknown
Sunlit
N/A
Visualization observer readout
Local Sidereal Time
11:00:31
Azimuth
Unknown
Elevation
Unknown
Doppler factor
Unknown
Orbital elements
Apogee altitude
30,128.281 km
Perigee altitude
607.718 km
Semi-major axis
21,746.137 km
Eccentricity
0.67875
Inclination
26.9639°
RAAN
302.7143°
Arg. of periapsis
182.8856°
True anomaly
285.57965°
Mean anomaly
346.5191°
Eccentric anomaly
323.25089°
Mean motion
0.67682 °/min
Orbital period
531.9 mins
BSTAR
0.00056018
Loading maneuver chart data...
Computing Atmospheric mass density...

Documentation

Showing up to 5 results
|